CW3712 Weather Reports


Display with metric or nautical units.
time (UTC)temp
F
wind
direction
speed
MPH
gust
MPH
rain 1hr
in
rain 24hr
in
rain mn
in
humidity
%
barometer
mb
20180622073749 72 108 0.0 0.0 0.00 0.00 0.00 67 1014.6
20180622072740 71 108 0.0 0.0 0.00 0.00 0.00 68 1014.4
20180622071747 71 108 0.0 0.0 0.00 0.00 0.00 69 1014.4
20180622070734 71 108 0.0 0.0 0.00 0.00 0.00 70 1014.3
20180622065740 71 108 0.0 0.0 0.00 0.00 0.00 72 1014.0
20180622064748 71 108 2.0 0.0 0.00 0.00 0.00 73 1014.2
20180622063740 72 108 3.0 0.0 0.00 0.00 0.00 69 1014.1
20180622062750 72 108 2.0 0.0 0.00 0.00 0.00 72 1014.1
20180622061757 73 109 1.0 0.0 0.00 0.00 0.00 72 1014.2
20180622060740 73 108 1.0 0.0 0.00 0.00 0.00 71 1014.1
20180622055747 73 107 0.0 0.0 0.00 0.00 0.00 71 1014.0
20180622054733 73 106 6.0 0.0 0.00 0.00 0.00 72 1013.8
20180622053748 73 105 0.0 0.0 0.00 0.00 0.00 72 1013.7
20180622052738 73 99 1.0 0.0 0.00 0.00 0.00 71 1013.5
20180622051745 74 91 6.0 0.0 0.00 0.00 0.00 67 1013.6
20180622050730 75 63 7.0 0.0 0.00 0.00 0.00 59 1013.4
20180622045756 76 344 7.0 0.0 0.00 0.00 0.00 57 1013.5
20180622044747 76 335 0.0 0.0 0.00 0.00 0.00 57 1013.3
20180622043754 76 333 0.0 0.0 0.00 0.00 0.00 57 1013.2
20180622042741 76 333 0.0 0.0 0.00 0.00 0.00 56 1013.0
20180622041750 76 333 0.0 0.0 0.00 0.00 0.00 57 1012.9
20180622040738 75 333 0.0 0.0 0.00 0.00 0.00 59 1013.1
20180622035753 75 333 0.0 0.0 0.00 0.00 0.13 59 1013.0
20180622034747 75 333 0.0 0.0 0.00 0.00 0.13 59 1012.8
20180622033735 76 333 0.0 0.0 0.00 0.00 0.13 58 1012.9
20180622032746 76 333 0.0 0.0 0.00 0.00 0.13 56 1012.6
20180622031735 77 333 0.0 0.0 0.00 0.00 0.13 55 1012.5
20180622030745 77 333 0.0 0.0 0.00 0.00 0.13 55 1012.8
20180622025757 77 334 0.0 0.0 0.00 0.00 0.13 54 1012.7
20180622024745 77 333 0.0 0.0 0.00 0.00 0.13 54 1012.7
20180622023752 77 334 0.0 0.0 0.00 0.00 0.13 54 1012.6
20180622022743 78 333 0.0 0.0 0.00 0.00 0.13 53 1012.7
20180622021751 78 333 0.0 0.0 0.00 0.00 0.13 52 1012.4
20180622020744 78 333 0.0 0.0 0.00 0.00 0.13 52 1012.4
20180622015755 79 333 0.0 0.0 0.00 0.00 0.13 52 1012.5
20180622014743 79 333 0.0 0.0 0.00 0.00 0.13 51 1012.1
20180622013751 79 333 0.0 0.0 0.00 0.00 0.13 50 1012.0
20180622012741 79 334 0.0 0.0 0.00 0.00 0.13 49 1011.6
20180622011748 80 333 0.0 0.0 0.00 0.00 0.13 46 1011.7
20180622010741 80 334 0.0 0.0 0.00 0.00 0.13 42 1011.4
20180622005748 80 334 0.0 0.0 0.00 0.00 0.13 41 1011.3
20180622004736 81 334 0.0 0.0 0.00 0.00 0.13 40 1011.1
20180622003747 81 334 0.0 0.0 0.00 0.00 0.13 39 1010.9
20180622002734 81 334 0.0 0.0 0.00 0.00 0.13 38 1010.9
20180622001750 82 334 0.0 0.0 0.00 0.00 0.13 36 1010.8
20180622000739 82 334 0.0 0.0 0.00 0.00 0.13 37 1010.7
20180621235745 83 334 0.0 0.0 0.00 0.00 0.13 37 1010.5
20180621234755 83 335 0.0 0.0 0.00 0.00 0.13 36 1010.3
20180621233743 84 335 0.0 0.0 0.00 0.00 0.13 35 1010.3
20180621232754 84 335 0.0 0.0 0.00 0.00 0.13 35 1010.2
20180621231740 84 336 0.0 0.0 0.00 0.00 0.13 35 1010.2
20180621230730 84 336 0.0 0.0 0.00 0.00 0.13 32 1010.3
20180621225756 84 336 0.0 0.0 0.00 0.00 0.13 30 1010.2
20180621224741 85 337 0.0 0.0 0.00 0.00 0.13 30 1009.9
20180621223748 84 337 6.0 0.0 0.00 0.00 0.13 29 1010.1
20180621222740 85 337 1.0 0.0 0.00 0.00 0.13 28 1009.9
20180621221752 85 336 0.0 0.0 0.00 0.00 0.13 28 1009.8
20180621220737 85 336 0.0 0.0 0.00 0.00 0.13 29 1010.0
20180621215745 85 345 0.0 0.0 0.00 0.00 0.13 29 1009.8
20180621214753 85 344 0.0 0.0 0.00 0.00 0.13 27 1009.8
20180621213746 84 338 0.0 0.0 0.00 0.00 0.13 27 1009.8
20180621212754 85 334 6.0 0.0 0.00 0.00 0.13 27 1009.6
20180621211744 85 326 0.0 0.0 0.00 0.00 0.13 28 1009.7
20180621210730 85 340 7.0 0.0 0.00 0.00 0.13 27 1009.6
20180621205737 84 338 0.0 0.0 0.00 0.00 0.13 27 1009.8
20180621204750 84 338 2.0 0.0 0.00 0.00 0.13 28 1009.9
20180621203740 84 338 0.0 0.0 0.00 0.00 0.13 27 1009.6
20180621202752 84 336 7.0 0.0 0.00 0.00 0.13 27 1009.9
20180621201739 84 334 0.0 0.0 0.00 0.00 0.13 28 1009.9
20180621200745 84 322 3.0 0.0 0.00 0.00 0.13 29 1009.8
20180621195735 84 330 6.0 0.0 0.00 0.00 0.13 28 1009.8
20180621194747 84 335 5.0 0.0 0.00 0.00 0.13 29 1009.9
20180621193736 83 0 4.0 0.0 0.00 0.00 0.13 30 1010.0
20180621192745 83 0 0.0 0.0 0.00 0.00 0.13 32 1009.7
20180621191735 82 341 0.0 0.0 0.00 0.00 0.13 33 1009.9
20180621190727 82 337 3.0 0.0 0.00 0.00 0.13 33 1009.7
20180621185755 82 0 7.0 0.0 0.00 0.00 0.13 33 1009.9
20180621184744 82 8 0.0 0.0 0.00 0.00 0.13 34 1010.0
20180621183752 82 0 0.0 0.0 0.00 0.00 0.13 33 1010.0
20180621182742 81 2 7.0 0.0 0.00 0.00 0.13 33 1010.0
20180621181754 81 15 3.0 0.0 0.00 0.00 0.13 33 1009.9
20180621180743 81 0 4.0 0.0 0.00 0.00 0.13 32 1010.2
20180621175749 81 358 2.0 0.0 0.00 0.00 0.13 33 1010.1
20180621174737 81 343 0.0 0.0 0.00 0.00 0.13 33 1010.3
20180621173744 81 41 0.0 0.0 0.00 0.00 0.13 35 1010.4